Location: Fauquembergues
(50.6005°N, 2.0987°E)
Time: 04:40:54
(UTC+00:00)

Landsat 5 - Pass Details

Date: 14 July 2020
Orbit: 529 x 654 km, 98.2° (Epoch: 06 August)

Event Time Altitude Azimuth Distance (km) Brightness Sun altitude
Rises 03:08:25 0° 161° (SSE) 2,711 6.6 -6.4°
Reaches altitude 10° 03:10:33 10° 161° (SSE) 1,808 5.7 -6.2°
Maximum altitude 03:14:26 82° 74° (ENE) 548 3.4 -5.8°
Drops below altitude 10° 03:18:17 10° 347° (NNW) 1,791 6.4 -5.3°
Sets 03:20:24 0° 347° (NNW) 2,684 7.3 -5.1°
